Powrót do katalogu

STARLINK-11626

AktywnyŁącznośćVLEO
NORAD 63556·PAYLOAD·🇺🇸 United States

Wystrzelony Apr 13, 2025 z Cape Canaveral Space Force Station

Loading…

Następne Przeloty (najbliższe 24 godziny)

TLE

ŚwieżeSource: CelesTrak SupGP

Epoka: Sep 14, 2026, 22:30 UTC

1 63556C 25075J   26257.93798611  .00055764  00000+0  43321-3 0  2579
2 63556  43.0005  93.4606 0001668 281.1144 241.8654 15.70805821    17

Śledź STARLINK-11626 w czasie rzeczywistym z AllMySat

Download on the App Store